Le nostre stazioni meteo in Italia

Pubblicità
Il mio iltempo24.it
S. Giovanni Teatino, Italia (16231): Temperatura & dewpoint: 17.07.2019 06:00:00 - 23.07.2019 06:00:00 (CEST)S. Giovanni Teatino, Italia (16231): velocità del vento: 17.07.2019 06:00:00 - 23.07.2019 06:00:00 (CEST)S. Giovanni Teatino, Italia (16231): direzione del vento: 17.07.2019 06:00:00 - 23.07.2019 06:00:00 (CEST)S. Giovanni Teatino, Italia (16231): reduced air pressure: 17.07.2019 06:00:00 - 23.07.2019 06:00:00 (CEST)S. Giovanni Teatino, Italia (16231): precipitazioni: 17.07.2019 06:00:00 - 23.07.2019 06:00:00 (CEST)
Data & Tempo tt [°C] td [°C] ff [km/h] ff [kn] dd ppp [hPa] rr [mm]
23.07.2019 06:00:00 - - - - - - -
23.07.2019 05:00:00 23,5 20,6 13 7 SO 1018,5 -
23.07.2019 04:00:00 23,6 21,1 13 7 SO 1018,8 -
23.07.2019 03:00:00 23,7 20,8 8 4 SO 1019,1 -
23.07.2019 02:00:00 23,6 21,2 9 5 SO 1019,3 -
23.07.2019 01:00:00 24,3 21,6 11 6 SO 1019,7 -
23.07.2019 00:00:00 24,4 21,5 9 5 SO 1020,0 -
22.07.2019 23:00:00 24,4 21,3 4 2 OSO 1019,9 -
22.07.2019 22:00:00 24,7 21,4 4 2 O 1020,1 -
22.07.2019 21:00:00 25,4 21,8 4 2 NNO 1019,8 -
22.07.2019 20:00:00 27,0 22,8 4 2 ONO 1019,2 -
22.07.2019 19:00:00 27,3 21,8 9 5 O 1018,9 -
22.07.2019 18:00:00 28,8 21,8 13 7 ONO 1019,1 -
22.07.2019 17:00:00 28,9 23,3 5 3 N 1019,5 -
22.07.2019 16:00:00 - - - - - - -
22.07.2019 15:00:00 30,3 20,2 4 2 NNO 1019,8 -
22.07.2019 14:00:00 30,3 19,9 4 2 NO 1020,1 -
22.07.2019 13:00:00 29,1 21,5 2 1 NO 1020,4 -
22.07.2019 12:00:00 29,1 21,5 8 4 NO 1020,5 -
22.07.2019 11:00:00 27,9 20,4 8 4 O 1020,8 -
22.07.2019 10:00:00 27,6 20,4 8 4 ONO 1020,6 -
22.07.2019 09:00:00 26,4 20,0 4 2 NE 1020,4 -
22.07.2019 08:00:00 24,2 17,6 11 6 SO 1020,1 0,0
22.07.2019 07:00:00 24,0 17,4 8 4 SO 1019,9 -
22.07.2019 06:00:00 23,8 17,7 8 4 SO 1019,7 -
22.07.2019 05:00:00 23,6 19,1 8 4 SO 1019,7 -
22.07.2019 04:00:00 23,8 19,0 5 3 SO 1019,9 -
22.07.2019 03:00:00 24,0 20,1 11 6 SO 1019,8 -
22.07.2019 02:00:00 24,9 20,9 9 5 SO 1019,9 -
22.07.2019 01:00:00 24,3 22,9 8 4 SO 1020,0 -
22.07.2019 00:00:00 24,4 22,4 9 5 OSO 1020,1 -
21.07.2019 23:00:00 25,4 21,0 4 2 SSO 1019,7 -
21.07.2019 22:00:00 25,3 21,5 5 3 NE 1019,6 -
21.07.2019 21:00:00 26,4 22,4 5 3 NNE 1018,8 -
21.07.2019 20:00:00 28,1 21,6 2 1 SE 1018,6 -
21.07.2019 19:00:00 28,2 19,6 8 4 ENE 1018,1 -
21.07.2019 18:00:00 28,7 20,6 8 4 ENE 1018,2 -
21.07.2019 17:00:00 29,2 20,9 11 6 ENE 1018,6 -
21.07.2019 16:00:00 29,8 20,9 11 6 ENE 1018,5 -
21.07.2019 15:00:00 30,8 21,0 15 8 ENE 1018,6 -
21.07.2019 14:00:00 31,3 19,9 13 7 ENE 1018,8 -
21.07.2019 13:00:00 31,1 20,7 9 5 ENE 1019,0 -
21.07.2019 12:00:00 30,3 19,0 8 4 NE 1019,1 -
21.07.2019 11:00:00 29,5 21,4 0 0 N 1019,1 -
21.07.2019 10:00:00 27,5 20,8 4 2 O 1019,4 -
21.07.2019 09:00:00 25,5 19,6 8 4 O 1019,4 -
21.07.2019 08:00:00 24,6 18,2 8 4 SO 1019,3 -
21.07.2019 07:00:00 23,9 18,0 4 2 SSO 1019,1 -
21.07.2019 06:00:00 24,0 17,4 11 6 SSO 1018,7 -
21.07.2019 05:00:00 23,8 17,2 8 4 SO 1018,3 -
21.07.2019 04:00:00 24,2 17,6 11 6 SO 1018,3 -
21.07.2019 03:00:00 23,9 17,8 13 7 SO 1018,4 -
21.07.2019 02:00:00 23,9 18,7 8 4 SO 1018,7 -
21.07.2019 01:00:00 23,9 19,3 11 6 SO 1019,0 -
21.07.2019 00:00:00 24,3 19,1 8 4 SO 1018,9 -
20.07.2019 23:00:00 24,7 18,8 5 3 SE 1018,7 -
20.07.2019 22:00:00 24,9 19,2 11 6 SE 1018,5 -
20.07.2019 21:00:00 24,7 20,3 9 5 E 1018,0 -
20.07.2019 20:00:00 25,1 19,6 9 5 E 1017,7 -
20.07.2019 19:00:00 26,2 19,8 13 7 E 1017,5 -
20.07.2019 18:00:00 27,3 20,1 9 5 ENE 1017,3 -
20.07.2019 17:00:00 27,7 20,7 18 10 ENE 1017,2 -
20.07.2019 16:00:00 28,0 19,2 18 10 ENE 1017,5 -
20.07.2019 15:00:00 28,4 20,6 18 10 ENE 1017,6 -
20.07.2019 14:00:00 28,4 19,0 15 8 ENE 1017,6 -
20.07.2019 13:00:00 28,6 20,3 9 5 NE 1017,8 -
20.07.2019 12:00:00 28,5 21,2 11 6 NE 1017,8 -
20.07.2019 11:00:00 28,1 21,3 2 1 N 1017,9 -
20.07.2019 10:00:00 25,3 18,7 5 3 SO 1017,9 -
20.07.2019 09:00:00 23,8 17,9 5 3 SSO 1017,9 -
20.07.2019 08:00:00 22,6 16,8 11 6 SSO 1017,5 -
20.07.2019 07:00:00 21,8 16,0 8 4 SSO 1017,1 -
20.07.2019 06:00:00 21,7 16,1 11 6 SSO 1016,9 -
20.07.2019 05:00:00 21,9 15,9 16 9 SSO 1016,6 -
20.07.2019 04:00:00 22,4 16,4 13 7 SSO 1016,3 -
20.07.2019 03:00:00 22,6 16,3 5 3 SSO 1016,4 -
20.07.2019 02:00:00 22,3 16,5 8 4 SO 1016,6 -
20.07.2019 01:00:00 23,1 17,0 8 4 SSO 1016,8 -
20.07.2019 00:00:00 23,3 18,1 4 2 S 1016,9 -
19.07.2019 23:00:00 22,8 18,1 4 2 ESE 1016,7 -
19.07.2019 22:00:00 22,7 18,0 9 5 E 1016,4 -
19.07.2019 21:00:00 23,4 17,8 11 6 E 1016,0 -
19.07.2019 20:00:00 24,3 18,6 5 3 ENE 1015,8 -
19.07.2019 19:00:00 25,0 19,3 5 3 NNE 1015,8 -
19.07.2019 18:00:00 26,9 20,0 8 4 E 1015,2 -
19.07.2019 17:00:00 26,8 19,9 9 5 ENE 1014,9 -
19.07.2019 16:00:00 - - - - - - -
19.07.2019 15:00:00 26,7 21,2 18 10 ENE 1015,3 -
19.07.2019 14:00:00 26,8 21,7 16 9 ENE 1015,7 -
19.07.2019 13:00:00 26,9 22,5 22 12 ENE 1015,7 -
19.07.2019 12:00:00 26,1 20,8 11 6 NE 1015,8 -
19.07.2019 11:00:00 26,7 19,0 0 0 N 1015,7 -
19.07.2019 10:00:00 25,0 21,2 4 2 O 1015,6 -
19.07.2019 09:00:00 23,0 20,1 2 1 OSO 1015,5 -
19.07.2019 08:00:00 21,6 18,7 4 2 SO 1015,2 -
19.07.2019 07:00:00 20,6 17,5 5 3 OSO 1014,8 -
19.07.2019 06:00:00 20,4 16,2 4 2 SSO 1014,5 -
19.07.2019 05:00:00 20,8 18,3 8 4 SSO 1014,1 -
19.07.2019 04:00:00 21,2 18,5 8 4 SO 1014,2 -
19.07.2019 03:00:00 21,7 18,6 2 1 SSE 1014,3 -
19.07.2019 02:00:00 21,8 18,5 4 2 SO 1014,1 -
19.07.2019 01:00:00 22,2 18,3 5 3 SO 1013,8 -
19.07.2019 00:00:00 22,5 18,4 5 3 E 1013,7 -
18.07.2019 23:00:00 22,9 18,4 9 5 E 1013,3 -
18.07.2019 22:00:00 23,0 18,0 5 3 E 1013,3 -
18.07.2019 21:00:00 23,5 17,6 5 3 E 1012,3 -
18.07.2019 20:00:00 24,2 18,5 11 6 ENE 1011,8 -
18.07.2019 19:00:00 24,4 18,5 9 5 ENE 1011,2 -
18.07.2019 18:00:00 24,8 18,7 15 8 ENE 1010,9 -
18.07.2019 17:00:00 26,4 19,0 15 8 ENE 1010,7 -
18.07.2019 16:00:00 27,2 19,2 11 6 ENE 1010,6 -
18.07.2019 15:00:00 28,1 17,0 21 11 ENE 1010,9 -
18.07.2019 14:00:00 28,5 15,4 18 10 ENE 1010,8 -
18.07.2019 13:00:00 27,9 17,4 18 10 ENE 1011,1 -
18.07.2019 12:00:00 27,3 18,3 16 9 ENE 1011,1 -
18.07.2019 11:00:00 27,6 15,5 8 4 E 1011,2 -
18.07.2019 10:00:00 26,2 15,2 9 5 E 1011,0 -
18.07.2019 09:00:00 24,6 15,4 4 2 ESE 1011,0 -
18.07.2019 08:00:00 21,1 14,4 5 3 SO 1010,9 -
18.07.2019 07:00:00 20,8 13,7 9 5 S 1010,9 -
18.07.2019 06:00:00 20,1 13,0 4 2 S 1011,0 -
18.07.2019 05:00:00 21,5 13,8 2 1 SO 1010,7 -
18.07.2019 04:00:00 21,4 12,8 4 2 E 1010,9 -
18.07.2019 03:00:00 21,7 13,5 4 2 ESE 1011,0 -
18.07.2019 02:00:00 21,1 12,9 4 2 SSO 1011,3 -
18.07.2019 01:00:00 20,9 13,0 8 4 SO 1011,4 -
18.07.2019 00:00:00 21,8 14,1 11 6 SO 1011,6 -
17.07.2019 23:00:00 22,1 14,1 8 4 SSO 1011,6 -
17.07.2019 22:00:00 22,9 13,6 4 2 S 1011,6 -
17.07.2019 21:00:00 23,2 14,9 2 1 SSE 1011,2 -
17.07.2019 20:00:00 23,7 15,1 4 2 E 1011,4 -
17.07.2019 19:00:00 24,5 14,8 5 3 NE 1011,3 -
17.07.2019 18:00:00 25,2 15,4 8 4 ENE 1011,7 -
17.07.2019 17:00:00 25,6 15,2 11 6 ENE 1012,3 -
17.07.2019 16:00:00 25,8 15,4 13 7 NE 1012,4 -
17.07.2019 15:00:00 26,6 15,3 8 4 N 1012,6 -
17.07.2019 14:00:00 26,9 14,6 8 4 N 1012,9 -
17.07.2019 13:00:00 26,7 15,7 11 6 S 1013,1 -
17.07.2019 12:00:00 26,3 18,1 4 2 NO 1013,1 -
17.07.2019 11:00:00 25,4 18,3 9 5 NO 1013,2 -
17.07.2019 10:00:00 23,3 16,0 8 4 OSO 1013,4 -
17.07.2019 09:00:00 21,2 14,5 5 3 SO 1013,7 -
17.07.2019 08:00:00 19,3 12,5 13 7 SO 1013,7 -
17.07.2019 07:00:00 19,3 12,0 9 5 SO 1013,6 -
17.07.2019 06:00:00 18,2 11,7 8 4 SO 1013,5 -

tt = Temperatura
td = dewpoint
ff = velocità del vento
dd = direzione del vento
ppp = reduced air pressure
rr = precipitazioni

Stazioni seguenti

WeatherPro
AMSI
MeteoEarth